Simultaneous Nadir Overpasses (SNOs) Predictions

Prediction of SNOs between AQUA and METOP-A Satellite Orbit:

Table of predicted SNOs for the next 14.0 days since TLE Epoch: 4/10/2021
Index Date (AQUA) Time (AQUA) Lat,Lon (AQUA) SZA (AQUA ) Date (METOP-A) Time (METOP-A) Lat,Lon (METOP-A) SZA (METOP-A ) Distance(km) Time Diff (sec)
1 04/10/2021 03:59:44 -77.25, -75.38 110.34 04/10/2021 03:58:51 -77.23, -75.32 110.34 2.53 53
2 04/10/2021 04:49:12 77.27, 92.18 69.68 04/10/2021 04:49:30 77.28, 92.23 69.69 2.15 18
3 04/12/2021 23:33:58 -77.22, -8.85 111.40 04/12/2021 23:33:12 -77.25, -8.91 111.37 2.78 46
4 04/13/2021 00:23:27 77.30, 158.51 68.67 04/13/2021 00:23:51 77.30, 158.63 68.66 2.93 24
5 04/15/2021 19:08:13 -77.25, 57.48 112.39 04/15/2021 19:07:33 -77.26, 57.50 112.37 1.01 40
6 04/15/2021 19:57:41 77.28,-135.00 67.64 04/15/2021 19:58:12 77.31,-134.99 67.65 2.49 31
7 04/18/2021 14:42:27 -77.29, 123.78 113.35 04/18/2021 14:41:53 -77.27, 123.89 113.35 2.98 34
8 04/18/2021 15:31:55 77.32, -68.72 66.69 04/18/2021 15:32:32 77.31, -68.61 66.67 2.89 37
9 04/21/2021 10:16:41 -77.28,-169.75 114.33 04/21/2021 10:16:14 -77.28,-169.73 114.32 0.59 27



Historial Predications of SNOs between AQUA and METOP-A
